#timestamp,LO_Frequency,Hit,StdDev 
1551020415.8,286047002.8,P
1551020435.6,286047000.4,N
1551020455.5,286046999.8,N
1551020475.3,286046998.5,N
1551020495.1,286046998.8,N
1551020515.9,286046999.6,N
1551020535.7,286046999.4,N
1551020555.6,286047001.0,N
1551020575.4,286047002.8,N
1551020595.2,286047002.8,N
1551020615.1,286047002.0,N
1551020616.0,286047002.0,N
1551020635.8,286047002.0,N
1551020655.6,286047002.8,N
1551020675.5,286047002.6,N
1551020695.3,286047000.7,N
1551020715.2,286047001.0,N
1551020735.9,286047000.1,N
1551020755.7,286047000.1,N
1551020775.6,286046999.8,N
1551020795.4,286046998.2,N
1551020815.2,286047000.6,N
1551020835.1,286046998.3,N
1551020836.0,286046998.3,N
1551020855.8,286047000.6,N
1551020875.7,286047000.3,N
1551020895.5,286046999.7,N
1551020915.3,286046999.8,N
1551020935.2,286047002.3,N
1551020955.0,286047002.3,N
1551020955.9,286047002.3,N
1551020975.7,286047000.1,N
1551020995.6,286047002.2,N
1551021015.4,286047002.3,N
1551021035.3,286047001.9,N
1551021055.1,286046999.7,N
1551021056.0,286046999.7,N
1551021075.8,286047000.0,N
1551021095.7,286047002.7,N
1551021115.5,286046999.8,N
1551021135.4,286047002.0,N
1551021155.2,286047000.5,N
1551021175.0,286046999.9,N
1551021175.9,286046999.9,N
1551021195.8,286046999.9,N
1551021215.6,286046999.8,N
1551021235.4,286047000.9,N
1551021255.3,286047000.4,N
1551021275.1,286047000.2,N
1551021295.9,286047000.6,N
1551021315.7,286047000.6,N
1551021335.5,286046998.6,N
1551021355.4,286047000.3,N
1551021375.2,286047002.1,N
1551021395.0,286047001.9,N
1551021395.9,286047001.9,N
1551021415.8,286047001.7,N
1551021435.6,286047001.8,N
1551021455.5,286047001.6,N
1551021475.3,286047001.6,N
1551021495.1,286047002.4,N
1551021515.9,286047002.8,N
1551021535.7,286046999.7,N
1551021555.5,286047001.9,N
1551021575.4,286047001.6,N
1551021595.2,286047002.4,N
1551021615.1,286047000.1,N
1551021616.0,286047000.1,N
1551021635.8,286047000.7,N
1551021655.6,286047000.7,N
1551021675.5,286047001.0,N
1551021695.3,286047002.2,N
1551021715.1,286047001.6,N
1551021735.9,286047004.3,Y
1551021755.7,286047002.8,P
1551021775.6,286047000.4,N
1551021795.4,286046999.9,N
1551021815.2,286046998.6,N
1551021835.1,286047000.3,N
1551021836.0,286047000.3,N
1551021855.8,286047000.8,N
1551021875.7,286047000.0,N
1551021895.5,286046999.8,N
1551021915.3,286047000.1,N
1551021935.2,286047000.8,N
1551021955.0,286047000.6,N
1551021955.9,286047000.6,N
1551021975.7,286047000.0,N
1551021995.6,286046999.9,N
1551022015.4,286047002.6,Y
1551022035.3,286047002.5,P
1551022055.1,286047002.3,N
1551022075.8,286047001.9,N
1551022095.7,286047002.3,N
1551022115.5,286047000.2,N
1551022135.4,286047000.0,N
1551022155.2,286046999.8,N
1551022175.0,286047000.5,N
1551022175.9,286047000.5,N
1551022195.8,286047001.0,N
1551022215.6,286047000.4,N
1551022235.5,286047002.1,N
1551022255.3,286047001.6,N
1551022275.1,286047002.1,N
1551022295.9,286047002.7,N
1551022315.7,286046999.8,N
1551022335.5,286047000.5,N
1551022355.4,286047002.0,N
1551022375.2,286046999.8,N
1551022395.1,286047000.1,N
1551022396.0,286047000.1,N
1551022415.8,286047000.0,N
1551022435.6,286047001.6,N
1551022455.5,286046999.7,N
1551022475.3,286046999.8,N
1551022495.2,286047000.8,N
1551022515.9,286046998.2,N
1551022535.7,286046998.6,N
1551022555.6,286046998.2,N
1551022575.4,286047000.8,N
1551022595.2,286047001.0,N
1551022615.1,286047000.5,N
1551022616.0,286047000.5,N
1551022635.8,286047001.0,N
1551022655.7,286046998.5,N
1551022675.5,286047000.7,N
1551022695.3,286047000.6,N
1551022715.2,286046999.7,N
1551022735.0,286046999.9,N
1551022735.9,286046999.9,N
1551022755.8,286047002.0,N
1551022775.6,286047004.2,Y
1551022795.4,286047004.2,P
1551022815.3,286047001.3,N
1551022835.1,286047002.1,N
1551022855.8,286047002.0,N
1551022875.7,286047000.7,N
1551022895.5,286047001.0,N
1551022915.4,286047000.6,N
1551022935.2,286046998.5,N
1551022955.0,286047001.1,N
1551022955.9,286047001.1,N
1551022975.8,286047000.5,N
1551022995.6,286047000.7,N
1551023015.4,286046999.8,N
1551023035.3,286047000.3,N
1551023055.1,286047000.0,N
1551023075.9,286046999.7,N
1551023095.7,286047000.1,N
1551023115.5,286047000.3,N
1551023135.4,286047001.6,N
1551023155.2,286046999.9,N
1551023175.0,286047000.8,N
1551023175.9,286047000.8,N
1551023195.8,286046999.1,N
1551023215.6,286046998.5,N
1551023235.5,286047001.2,N
1551023255.3,286046999.3,N
1551023275.1,286046998.9,N
1551023295.9,286046998.4,N
1551023315.7,286046999.3,N
1551023335.6,286046996.9,N
1551023355.4,286047000.8,N
1551023375.2,286046998.7,N
1551023395.1,286046999.8,N
1551023396.0,286046999.8,N
1551023415.8,286047000.1,N
1551023435.6,286047000.3,N
1551023455.5,286046999.7,N
1551023475.3,286047000.8,N
1551023495.2,286047000.8,N
1551023515.9,286046998.6,N
1551023535.7,286046998.3,N
1551023555.6,286047001.0,N
1551023575.4,286047000.3,N
1551023595.2,286046999.9,N
1551023615.1,286047000.1,N
1551023616.0,286047000.1,N
1551023635.8,286047002.1,N
1551023655.7,286047000.4,N
1551023675.5,286047000.4,N
1551023695.3,286047000.3,N
1551023715.2,286046998.4,N
1551023735.0,286046998.3,N
1551023735.9,286046998.3,N
1551023755.8,286047000.0,N
1551023775.6,286046999.7,N
1551023795.4,286047002.2,N
1551023815.3,286047001.9,N
1551023835.1,286047005.6,Y
1551023855.8,286047005.7,P
1551023875.7,286047002.9,N
1551023895.5,286047006.0,N
1551023915.4,286047005.2,N
1551023935.2,286047005.0,N
1551023955.0,286047003.2,N
1551023955.9,286047003.2,N
1551023975.8,286047003.7,N
1551023995.6,286047003.5,N
